Location: Owatonna
(44.0840°N, 93.2260°W)
Time: 17:46:31
(UTC-05:00)

Tiangong - Visible Passes

Search period start: 24 September 2022 00:00
Search period end: 04 October 2022 00:00
Orbit: 377 x 383 km, 41.5° (Epoch: 24 September)

Date Brightness Start Highest point End Pass type
(mag) Time Alt. Az. Time Alt. Az. Time Alt. Az.
24 Sep 0.7 04:36:42 16° ESE 04:36:42 16° ESE 04:37:29 10° E visible
24 Sep -1.6 06:08:49 17° WSW 06:10:59 44° S 06:14:00 10° ESE visible
25 Sep -1.1 05:10:40 39° SE 05:10:40 39° SE 05:12:57 10° ESE visible
26 Sep -1.4 05:44:40 32° SW 05:45:16 35° SSW 05:48:10 10° SE visible
27 Sep 0.7 04:46:36 14° ESE 04:46:36 14° ESE 04:47:10 10° ESE visible
27 Sep -0.3 06:18:44 12° WSW 06:20:29 18° SSW 06:22:44 10° SSE visible
28 Sep -0.1 05:20:45 20° SSE 05:20:45 20° SSE 05:22:08 10° SE visible
29 Sep 0.2 05:55:01 12° SSW 05:55:01 12° SSW 05:55:51 10° S visible
